Simultaneous Nadir Overpasses (SNOs) Predictions

Prediction of SNOs between NOAA-15 and METOP-C Satellite Orbit:

Table of predicted SNOs for the next 14.0 days since TLE Epoch: 7/31/2021
Index Date (NOAA-15) Time (NOAA-15) Lat,Lon (NOAA-15) SZA (NOAA-15 ) Date (METOP-C) Time (METOP-C) Lat,Lon (METOP-C) SZA (METOP-C ) Distance(km) Time Diff (sec)
1 08/09/2021 04:21:38 -80.91, -25.72 112.87 08/09/2021 04:20:36 -80.89, -30.98 113.42 92.46 62
2 08/09/2021 05:12:18 81.02, 139.34 67.00 08/09/2021 05:11:09 81.03, 139.29 66.98 1.65 69
3 08/09/2021 06:02:47 -81.03, -53.46 113.01 08/09/2021 06:01:50 -81.02, -53.59 113.05 2.42 57
4 08/09/2021 06:53:21 81.03, 113.77 67.00 08/09/2021 06:52:31 81.02, 113.78 66.97 1.01 50
5 08/09/2021 07:43:49 -81.02, -78.65 112.98 08/09/2021 07:43:11 -81.03, -78.73 113.00 1.53 38
6 08/09/2021 08:34:23 81.03, 88.57 67.03 08/09/2021 08:33:52 81.03, 88.64 67.02 1.18 31
7 08/09/2021 09:24:52 -81.04,-104.22 112.98 08/09/2021 09:24:33 -81.02,-104.24 113.00 1.64 19
8 08/09/2021 10:15:25 81.03, 63.37 67.05 08/09/2021 10:15:13 81.04, 63.50 67.07 2.66 12
9 08/09/2021 11:05:54 -81.04,-129.42 112.96 08/09/2021 11:05:54 -81.03,-129.38 112.96 0.69 0
10 08/09/2021 11:56:26 81.03, 38.17 67.07 08/09/2021 11:56:34 81.03, 37.99 67.07 3.22 8
11 08/09/2021 12:46:55 -81.03,-154.61 112.93 08/09/2021 12:47:14 -81.04,-154.52 112.91 1.80 19
12 08/09/2021 13:37:29 81.04, 12.60 67.07 08/09/2021 13:37:56 81.03, 12.48 67.06 2.42 27
13 08/09/2021 14:27:58 -81.05, 179.82 112.93 08/09/2021 14:28:36 -81.03, 179.97 112.91 2.90 38
14 08/09/2021 15:18:31 81.04, -12.60 67.10 08/09/2021 15:19:17 81.04, -12.66 67.11 0.93 46
15 08/09/2021 16:08:59 -81.03, 154.99 112.88 08/09/2021 16:09:57 -81.04, 154.83 112.86 3.26 58
16 08/09/2021 16:59:33 81.03, -37.81 67.12 08/09/2021 17:00:38 81.04, -37.80 67.16 1.07 65



Historial Predications of SNOs between NOAA-15 and METOP-C
